Presure
243 240 239 235 235 238 236 226 234 228 216 219 220 217 216 214 218 226 221 223 215 222 223 199 227 204 188 197 194 177 170 179 194 183 192 191 193 186 182 171 164 164 165 165
232 229 232 233 229 230 235 244 242 231 219 218 221 225 216 215 209 211 220 218 211 222 225 229 211 223 200 205 177 194 191 176 179 186 184 187 187 195 189 180 173 168 164 164
230 231 233 238 244 243 244 237 229 243 235 239 231 225 226 222 216 216 213 214 208 208 213 220 225 207 184 202 208 178 197 179 172 173 180 188 192 188 177 192 182 173 171 172
262 265 265 264 268 271 271 270 266 246 239 242 240 233 221 221 224 223 214 212 212 212 210 209 213 213 197 188 202 209 195 191 192 177 172 175 181 187 197 179 186 184 178 170
277 275 274 286 283 284 290 276 276 280 269 261 246 252 231 217 217 222 89 215 217 217 219 215 218 213 211 209 190 214 197 218 192 193 179 185 178 185 187 197 180 172 177 177
377 389 382 384 390 408 441 449 462 449 290 277 239 255 246 236 226 209 219 221 218 213 171 221 223 224 222 214 229 187 204 228 201 207 193 181 175 181 182 187 182 190 174 170
374 367 362 354 369 387 408 413 429 462 459 493 413 251 245 255 250 230 222 222 223 167 225 233 224 227 150 211 230 219 208 120 194 226 222 199 184 180 183 180 181 181 189 183
336 350 348 350 370 407 397 382 389 437 432 494 516 425 101 252 249 251 241 233 232 230 229 230 229 238 223 235 213 203 225 225 202 182 215 243 212 187 180 178 183 176 171 112
342 346 340 353 351 414 387 391 391 399 409 435 543 426 370 324 251 253 248 248 237 233 238 228 220 198 225 215 213 229 197 201 210 215 220 190 219 221 208 180 186 185 179 175
338 336 332 345 337 356 380 392 387 387 398 390 455 404 383 354 324 268 256 253 219 194 245 240 229 225 220 218 216 215 217 203 193 203 220 223 191 204 213 202 181 179 191 171
311 340 341 347 339 347 384 384 387 358 344 340 363 405 418 349 328 327 263 265 255 251 248 163 239 229 226 198 225 217 209 213 208 195 214 212 236 229 195 201 204 198 181 178
310 332 343 347 346 386 398 374 349 337 327 330 344 372 347 375 359 342 321 313 261 258 254 257 89 242 226 230 228 222 223 222 183 217 197 213 232 237 226 233 208 201 207 190
286 290 304 341 361 447 368 368 344 340 335 325 326 344 344 337 346 381 333 336 294 293 268 270 261 245 243 242 231 195 230 171 233 243 248 201 203 185 239 236 221 208 203 203
258 289 295 296 298 305 313 353 357 353 316 341 345 334 355 344 350 325 355 355 316 307 315 319 195 90 238 165 242 242 239 200 245 244 252 252 208 203 179 230 230 201 205 205
247 276 281 278 283 284 282 290 289 291 307 312 331 343 317 339 343 354 339 352 363 320 331 337 273 307 274 238 236 239 241 243 252 253 101 254 255 213 210 182 234 226 205 204
263 247 279 274 277 281 281 281 283 286 286 299 311 315 321 331 319 323 328 327 333 351 349 369 388 357 355 230 139 238 233 232 242 257 261 263 264 268 272 212 182 185 219 207
274 278 274 264 267 264 262 263 277 284 300 306 311 319 317 322 327 344 349 359 369 386 387 384 355 354 360 384 343 258 250 239 231 229 250 259 266 279 274 277 153 220 186 205
261 270 265 256 256 247 252 253 255 261 263 287 294 300 303 304 304 310 318 312 311 312 337 433 444 412 393 390 312 281 266 206 242 232 238 239 268 263 264 274 278 211 231 213
257 277 240 259 256 229 256 250 249 255 286 279 271 273 272 285 289 286 294 296 301 302 308 321 329 447 445 394 428 397 284 269 254 137 232 241 259 253 251 254 263 277 212 229
264 265 233 257 251 247 258 244 233 245 262 263 257 262 259 258 267 275 271 273 277 282 284 293 304 309 354 430 437 450 307 279 257 251 232 240 242 97 244 240 243 260 277 220
259 256 265 244 227 244 245 245 247 235 226 247 251 230 256 252 253 260 258 254 258 263 271 278 281 288 308 330 412 467 437 290 272 252 233 232 156 224 238 232 228 241 257 263
253 264 235 248 224 238 228 237 226 240 244 239 225 223 252 240 249 244 248 250 257 259 271 269 265 276 282 296 308 343 402 311 282 260 247 234 236 220 233 231 225 228 238 254
230 257 266 237 231 259 242 240 238 223 236 231 230 232 243 234 249 259 257 246 248 251 251 248 257 266 275 280 290 293 318 370 343 273 266 248 235 214 226 233 228 219 228 239
254 268 222 273 241 214 252 247 243 221 224 244 239 231 234 238 252 244 252 259 253 243 257 244 253 249 249 257 255 277 291 293 327 343 355 273 266 247 224 227 234 232 222 226
282 323 283 221 277 257 248 223 236 247 235 214 228 238 243 236 236 231 240 240 245 239 241 231 234 239 251 249 255 257 265 272 271 279 302 327 354 322 281 236 226 230 231 223
335 279 275 286 251 242 248 251 259 239 228 238 234 236 247 235 238 235 229 230 232 246 239 256 239 249 237 244 256 247 245 266 265 277 269 288 307 305 315 330 286 264 245 228
Wind_Speed
75 75 73 72 73 72 69 68 66 69 74 78 73 70 70 71 68 63 62 61 63 65 69 73 75 84 72 73 73 65 63 58 59 62 65 64 65 64 66 58 59 59 57 56
75 77 78 76 76 75 76 75 74 74 78 82 78 75 73 74 72 67 66 64 65 68 67 67 75 76 81 77 69 78 80 62 63 67 64 66 67 63 70 67 64 66 60 58
79 83 85 86 87 85 84 79 74 75 79 86 87 78 81 80 78 79 71 68 68 71 69 67 65 72 66 71 82 74 84 72 64 67 68 73 70 69 67 71 65 68 67 65
88 90 93 96 97 97 98 99 95 84 80 85 90 82 81 79 80 81 81 77 77 77 74 73 69 70 79 81 68 76 84 78 82 75 73 74 72 69 74 70 67 68 71 67
87 87 90 89 90 90 90 98 99 100 97 90 97 92 86 87 84 83 14 90 89 83 81 80 77 75 81 80 82 70 76 84 82 87 82 83 78 78 72 71 69 63 68 73
47 38 40 40 39 40 32 34 36 47 99 93 87 104 93 101 92 87 87 89 95 89 61 87 85 82 81 83 79 77 67 68 74 87 89 85 81 85 73 71 69 70 70 73
29 32 36 44 43 43 35 28 26 23 31 35 67 110 97 104 97 97 99 99 97 66 93 90 78 80 48 77 72 72 72 37 69 72 78 91 92 87 86 67 70 72 70 76
38 33 38 42 41 38 32 28 26 15 19 8 43 72 29 103 100 105 106 108 102 100 96 87 73 72 72 73 73 72 55 58 61 75 65 72 90 95 88 78 78 75 74 35
28 31 36 38 34 29 16 16 19 4 9 16 22 65 81 103 100 104 107 112 108 101 103 84 75 69 69 73 75 71 77 71 64 70 73 79 77 81 92 91 87 84 80 79
25 28 28 34 29 35 20 15 4 2 10 6 15 69 80 83 95 111 110 112 91 75 103 86 83 79 74 74 78 84 83 88 86 73 69 78 85 83 85 92 92 85 87 76
30 30 27 28 30 36 16 8 26 36 27 17 14 48 74 85 91 94 108 110 110 99 99 51 85 84 79 71 86 90 91 89 90 89 73 75 76 80 88 87 90 97 90 83
31 35 29 25 33 32 7 38 36 31 26 21 18 38 41 44 84 91 95 101 108 108 105 94 25 96 89 88 89 87 86 87 73 87 85 75 75 76 81 80 89 92 90 97
29 33 47 43 36 17 31 34 36 32 29 26 21 19 38 39 46 35 67 65 96 98 112 100 95 93 96 96 90 75 86 61 86 83 80 87 84 74 77 82 87 93 93 89
30 38 43 47 49 55 49 25 26 24 16 13 11 12 18 25 36 48 43 69 83 93 91 96 57 30 91 55 93 95 91 72 91 87 84 83 90 86 77 82 87 92 93 92
31 25 32 32 43 47 44 46 41 35 33 25 16 1 3 19 16 28 35 39 55 70 74 82 73 95 80 95 94 93 93 89 89 87 28 83 83 90 88 80 85 92 94 94
31 33 36 37 43 49 47 44 40 34 28 24 19 13 9 7 9 15 22 25 30 42 51 60 71 89 94 64 48 96 89 84 79 77 78 81 84 84 84 89 84 80 95 96
19 27 31 31 40 41 42 42 42 35 32 23 22 16 14 15 11 7 4 3 12 32 45 57 61 66 67 68 79 100 93 85 76 70 70 72 74 73 74 77 41 89 85 95
15 22 23 23 32 29 33 35 35 35 31 33 30 29 29 23 23 20 24 25 25 22 16 21 40 58 56 55 59 98 96 72 76 68 67 66 67 67 66 68 69 93 91 93
15 17 20 24 28 20 28 28 35 35 34 37 33 39 40 45 41 37 31 29 30 24 21 25 26 23 35 41 54 65 90 84 74 47 64 62 63 62 61 61 63 67 95 96
17 15 20 22 23 22 32 28 26 35 33 35 33 34 30 29 37 38 34 35 39 31 24 28 24 25 24 16 23 41 84 78 69 66 61 59 61 29 61 61 62 62 65 93
12 14 15 9 15 21 25 27 31 27 25 30 29 23 30 27 26 33 31 24 27 26 27 27 24 22 24 21 6 17 41 70 68 63 60 59 42 60 61 63 64 64 62 63
18 14 9 10 12 12 11 15 16 23 27 25 20 18 25 20 23 17 21 18 21 26 26 25 19 22 20 17 11 7 8 61 63 61 61 61 61 65 62 65 67 64 63 59
23 12 8 8 10 15 7 12 15 15 18 16 16 18 17 9 22 22 17 14 18 20 19 15 16 21 20 16 15 12 3 7 47 56 58 61 64 68 67 66 68 69 67 62
16 11 29 12 6 14 11 9 8 10 14 12 12 12 15 17 13 12 19 18 16 13 18 15 19 13 10 11 4 12 17 12 4 15 31 65 67 66 71 71 71 71 72 71
14 5 4 24 17 17 5 13 9 3 8 13 12 8 10 9 15 11 12 12 10 7 8 6 7 6 6 9 11 6 5 11 10 7 8 24 28 55 68 73 76 76 76 75
23 23 21 16 18 12 11 1 3 10 14 11 16 17 9 7 9 7 8 8 8 7 2 5 2 5 7 6 4 9 12 5 11 6 12 8 20 29 34 42 71 73 75 75
Wind_Direction
277 275 273 269 268 265 259 256 252 246 249 249 247 245 245 249 247 242 238 236 232 233 227 237 234 229 235 238 241 244 248 242 237 239 240 241 238 236 237 233 242 245 243 244
279 277 275 272 268 265 262 258 251 246 246 250 248 245 246 245 250 247 241 236 237 238 235 229 236 233 233 230 239 237 241 243 240 243 239 241 240 234 239 235 233 242 245 244
279 279 278 275 272 269 267 262 258 253 248 250 247 245 244 243 243 248 245 240 234 238 235 231 230 235 237 230 229 237 235 242 241 246 244 243 240 238 237 239 235 240 243 243
276 274 273 272 269 265 262 261 259 255 251 248 249 246 249 248 244 244 248 246 241 238 234 234 225 230 236 231 228 228 232 235 235 240 244 247 244 240 239 240 239 236 241 245
281 278 276 274 270 267 262 259 257 254 252 248 250 244 240 243 243 241 223 243 243 238 236 234 231 225 230 234 231 229 231 234 230 231 239 241 247 245 240 239 239 237 239 244
293 295 292 295 300 308 299 287 279 253 247 245 245 247 241 238 236 239 242 238 240 239 236 231 229 227 228 232 232 235 230 233 233 230 232 236 243 247 243 237 239 238 238 244
304 305 304 295 308 315 300 306 297 270 251 251 225 242 238 241 238 237 239 239 240 240 240 236 229 231 237 233 238 236 237 253 240 236 236 234 237 243 246 238 236 240 237 239
302 309 309 310 321 317 286 291 285 285 256 240 201 204 241 236 236 237 237 241 238 240 242 241 236 234 234 235 237 236 232 233 236 240 233 239 237 237 245 246 241 236 241 247
325 325 321 324 330 349 324 311 286 289 306 182 208 196 206 228 233 234 237 238 238 238 241 239 238 234 230 228 235 232 232 229 227 233 236 233 233 236 237 242 245 243 239 242
353 329 321 327 334 346 339 341 128 241 144 128 195 192 199 211 225 231 235 237 240 242 239 238 238 236 229 228 227 232 226 227 229 224 231 234 229 231 233 235 239 242 243 244
3 2 344 343 351 345 337 26 110 107 118 146 216 189 200 209 213 223 232 237 239 240 241 252 237 237 232 231 230 227 230 228 226 232 222 232 236 236 232 234 235 238 240 242
19 23 13 6 2 346 85 121 124 132 150 155 199 179 199 213 214 222 228 232 238 241 240 236 235 237 234 234 234 229 232 233 234 228 235 228 230 234 234 232 234 237 238 237
36 41 51 43 22 21 118 122 136 151 154 176 189 186 203 217 217 213 220 224 234 236 241 240 234 232 237 238 237 238 235 239 242 243 239 232 234 240 232 230 229 233 236 237
8 50 57 62 67 61 63 122 142 145 115 171 197 222 212 195 208 221 213 215 230 236 237 240 246 249 233 241 238 241 242 242 244 245 243 239 231 234 241 229 228 233 234 235
13 39 51 57 61 63 63 59 62 61 57 51 46 283 100 241 220 211 225 213 220 234 237 240 245 245 239 232 235 236 237 238 240 241 257 241 240 231 232 239 228 228 232 235
12 9 62 57 60 59 58 56 53 52 49 52 55 57 67 133 218 250 254 249 249 239 239 237 238 244 245 243 241 233 233 233 235 237 239 240 242 243 244 231 239 243 227 231
59 67 75 67 67 67 63 61 51 47 48 52 60 73 70 72 71 86 141 212 239 244 246 245 246 245 245 242 232 230 233 233 231 230 235 238 240 241 239 239 251 230 241 231
26 72 87 74 70 65 66 65 62 58 55 67 65 68 68 74 73 73 89 89 84 76 40 259 245 242 245 241 239 223 228 234 230 229 233 236 236 236 237 238 238 231 228 233
40 70 37 80 83 56 89 78 74 59 65 76 78 83 80 82 83 81 81 77 71 63 59 69 55 244 234 236 235 223 227 229 230 245 231 237 234 234 235 235 238 240 231 228
41 51 60 99 96 87 88 84 73 75 77 76 75 78 80 80 79 77 81 76 72 65 57 52 49 45 38 228 229 219 223 229 229 229 228 234 233 256 233 233 234 239 242 232
55 50 128 63 48 86 87 89 85 80 75 78 78 69 74 74 71 78 87 91 87 82 69 66 66 56 49 52 46 236 227 229 230 230 225 228 244 233 233 233 234 237 240 240
85 58 104 130 44 47 72 84 70 82 90 91 77 71 69 64 77 84 86 89 87 78 61 75 84 76 67 54 65 57 269 228 230 230 228 227 228 229 231 232 234 236 238 240
32 128 118 110 77 128 112 109 104 84 82 93 87 83 64 34 73 65 93 95 84 90 92 78 72 75 71 83 94 94 108 206 228 233 234 232 228 229 229 231 233 235 235 236
354 163 31 174 135 57 160 128 114 73 79 93 91 69 78 72 58 90 79 67 91 92 87 95 95 107 118 96 126 94 109 84 235 197 239 236 234 231 228 230 232 233 235 234
32 147 100 50 171 179 163 43 51 61 47 37 43 53 43 59 61 54 55 60 70 103 100 162 141 98 112 146 128 168 183 154 175 193 288 258 247 242 241 230 234 234 235 237
62 49 41 43 57 60 30 33 263 18 41 36 17 20 18 20 20 28 19 21 7 349 15 21 237 165 224 231 220 219 216 174 212 167 221 277 260 250 249 249 245 242 237 243